TimeCST,TemperatureF,Dew PointF,Humidity,Sea Level PressureIn,VisibilityMPH,Wind Direction,Wind SpeedMPH,Gust SpeedMPH,PrecipitationIn,Events,Conditions,WindDirDegrees,DateUTC
12:03 AM,39.2,39.2,100,30.09,0.5,South,5.8,-,N/A,Fog,Fog,170,2012-11-22 06:03:00
12:10 AM,39.2,39.2,100,30.09,0.2,South,6.9,-,N/A,Fog,Fog,180,2012-11-22 06:10:00
12:20 AM,39.2,39.2,100,30.09,0.5,South,5.8,-,N/A,Fog,Fog,180,2012-11-22 06:20:00
12:39 AM,39.2,39.2,100,30.09,1.0,South,6.9,-,N/A,,Clear,170,2012-11-22 06:39:00
12:52 AM,39.0,39.0,100,30.09,1.5,South,5.8,-,N/A,,Clear,170,2012-11-22 06:52:00
1:12 AM,41.0,39.2,93,30.08,2.5,South,6.9,-,N/A,,Clear,180,2012-11-22 07:12:00
1:23 AM,41.0,39.2,93,30.08,3.0,South,5.8,-,N/A,,Clear,170,2012-11-22 07:23:00
1:35 AM,39.2,39.2,100,30.08,2.5,South,4.6,-,N/A,,Clear,170,2012-11-22 07:35:00
1:52 AM,37.9,37.9,100,30.09,2.0,SSE,5.8,-,N/A,,Clear,150,2012-11-22 07:52:00
1:59 AM,37.4,37.4,100,30.07,1.0,SSE,3.5,-,N/A,,Clear,150,2012-11-22 07:59:00
2:06 AM,37.4,35.6,93,30.08,0.5,SSE,3.5,-,N/A,Fog,Fog,150,2012-11-22 08:06:00
2:14 AM,35.6,35.6,100,30.08,0.2,SE,3.5,-,N/A,Fog,Fog,140,2012-11-22 08:14:00
2:52 AM,35.1,35.1,100,30.08,0.2,SE,3.5,-,N/A,Fog,Fog,140,2012-11-22 08:52:00
3:52 AM,36.0,36.0,100,30.05,0.2,SE,4.6,-,N/A,Fog,Fog,140,2012-11-22 09:52:00
4:02 AM,37.4,37.4,100,30.04,0.5,SE,5.8,-,N/A,Fog,Fog,140,2012-11-22 10:02:00
4:15 AM,37.4,37.4,100,30.04,1.0,SSE,6.9,-,N/A,,Mist,150,2012-11-22 10:15:00
4:24 AM,37.4,37.4,100,30.03,1.2,SSE,9.2,-,N/A,,Clear,160,2012-11-22 10:24:00
4:52 AM,37.0,37.0,100,30.05,1.2,SSE,5.8,-,N/A,,Clear,150,2012-11-22 10:52:00
5:52 AM,37.0,37.0,100,30.04,1.5,SSE,6.9,-,N/A,,Clear,150,2012-11-22 11:52:00
6:52 AM,37.0,37.0,100,30.01,0.8,SE,6.9,-,N/A,,Clear,130,2012-11-22 12:52:00
7:16 AM,39.2,39.2,100,30.00,1.2,South,6.9,-,N/A,,Clear,180,2012-11-22 13:16:00
7:52 AM,42.1,41.0,96,30.00,2.5,South,11.5,-,N/A,,Clear,170,2012-11-22 13:52:00
8:35 AM,46.4,44.6,93,29.98,3.0,South,12.7,-,N/A,,Clear,180,2012-11-22 14:35:00
8:52 AM,48.0,45.0,89,29.99,3.0,South,12.7,-,N/A,,Clear,170,2012-11-22 14:52:00
9:52 AM,54.0,46.9,77,29.97,6.0,South,15.0,21.9,N/A,,Haze,190,2012-11-22 15:52:00
10:52 AM,57.0,45.0,64,29.95,8.0,South,15.0,-,N/A,,Scattered Clouds,190,2012-11-22 16:52:00
11:52 AM,57.9,46.0,65,29.89,8.0,South,21.9,27.6,0.01,,Mostly Cloudy,180,2012-11-22 17:52:00
12:52 PM,60.1,45.0,57,29.86,9.0,South,13.8,26.5,N/A,,Mostly Cloudy,180,2012-11-22 18:52:00
1:52 PM,62.1,45.0,53,29.83,10.0,SSW,17.3,31.1,N/A,,Scattered Clouds,200,2012-11-22 19:52:00
2:52 PM,62.1,46.0,56,29.81,10.0,SSW,17.3,31.1,N/A,,Scattered Clouds,200,2012-11-22 20:52:00
3:52 PM,55.9,50.0,80,29.85,4.0,SSW,19.6,29.9,0.02,Rain,Rain,200,2012-11-22 21:52:00
4:52 PM,55.0,51.1,86,29.82,6.0,South,13.8,-,0.09,Rain,Light Rain,170,2012-11-22 22:52:00
5:52 PM,55.0,50.0,83,29.84,6.0,South,15.0,-,0.06,Rain,Light Rain,190,2012-11-22 23:52:00
6:52 PM,55.9,50.0,80,29.82,9.0,South,15.0,23.0,0.01,,Overcast,190,2012-11-23 00:52:00
7:52 PM,55.9,48.9,77,29.80,9.0,South,18.4,24.2,N/A,,Overcast,190,2012-11-23 01:52:00
8:52 PM,55.0,48.9,80,29.80,10.0,SW,13.8,20.7,N/A,,Scattered Clouds,230,2012-11-23 02:52:00
9:52 PM,48.0,42.1,80,29.83,10.0,West,25.3,32.2,N/A,,Clear,270,2012-11-23 03:52:00
10:52 PM,42.1,37.0,82,29.88,10.0,West,19.6,33.4,N/A,,Clear,280,2012-11-23 04:52:00
11:52 PM,39.0,35.1,86,29.92,10.0,West,19.6,26.5,N/A,,Clear,270,2012-11-23 05:52:00